EW2351 Cozumel MX current weather conditions

sailwx.info

Wind from 153 at 1 knots gusting 4

Air temperature 14.4° C
Dewpoint -1.2° C

Last reported at 2019-Mar-19 01:00 UTC.
Time now 2019-Mar-19 01:31 UTC

Location: N 20°33' W 086°55'.
View on Google Maps.

See reports from other nearby stations

  
Tides and Currents Weather Stations Pressure Air Temp Water Temp Dewpoint Dewpoint Depression Visibility Wind Speed Wind Dir Waves Ship Positions
date/time (UTC)wind fromknots sea level pressurealtimeterstation pressurevisibilityair tempwater tempwave heightnotes
2019-Mar-19 01:00 153 1 gusting 4 14.4
2019-Mar-19 00:45 147 1 gusting 3 14.4
2019-Mar-19 00:30 146 1 gusting 5 15.0
2019-Mar-19 00:15 174 2 gusting 8 15.6
2019-Mar-19 00:00 166 5 gusting 7 16.1
2019-Mar-18 23:45 153 4 gusting 11 16.7
2019-Mar-18 23:30 130 3 gusting 10 17.8
2019-Mar-18 23:15 148 3 gusting 8 18.3
2019-Mar-18 23:00 148 6 gusting 11 18.3
2019-Mar-18 22:45 145 2 gusting 9 18.3
2019-Mar-18 22:30 123 6 gusting 10 18.3
2019-Mar-18 22:15 118 6 gusting 11 18.9
2019-Mar-18 22:00 133 5 gusting 13 18.9
2019-Mar-18 21:47 125 6 gusting 15 19.4
2019-Mar-18 21:32 153 6 gusting 9 19.4
2019-Mar-18 21:16 059 6 gusting 9 18.9
2019-Mar-18 21:01 133 3 gusting 12 18.9
2019-Mar-18 20:46 064 5 gusting 12 18.9
2019-Mar-18 20:31 138 6 gusting 12 18.9
2019-Mar-18 20:16 109 6 gusting 12 18.3
2019-Mar-18 20:01 166 0 gusting 10 18.3
2019-Mar-18 19:46 095 3 gusting 12 18.3
2019-Mar-18 19:31 133 6 gusting 15 18.3
2019-Mar-18 19:16 108 4 gusting 12 18.3
2019-Mar-18 19:01 207 3 gusting 12 18.3
2019-Mar-18 18:45 145 5 gusting 9 17.8
2019-Mar-18 18:30 103 6 gusting 12 17.8
2019-Mar-18 18:16 131 4 gusting 11 17.8
2019-Mar-18 18:01 117 6 gusting 12 17.2
2019-Mar-18 17:46 123 5 gusting 9 17.2
2019-Mar-18 17:30 110 6 gusting 13 17.2
2019-Mar-18 17:15 131 4 gusting 13 17.2
2019-Mar-18 17:00 089 6 gusting 12 16.7
2019-Mar-18 16:45 094 5 gusting 9 16.7
2019-Mar-18 16:30 107 4 gusting 10 16.1
2019-Mar-18 16:15 129 5 gusting 8 15.6
2019-Mar-18 16:00 093 1 gusting 5 15.0
2019-Mar-18 15:45 077 1 gusting 4 13.9
2019-Mar-18 15:30 067 1 gusting 3 12.8
2019-Mar-18 15:17 025 1 gusting 4 12.2
2019-Mar-18 15:02 020 0 gusting 2 11.7
2019-Mar-18 14:48 008 0 gusting 3 11.7
2019-Mar-18 14:31 027 1 gusting 4 11.1
2019-Mar-18 14:17 355 10.0
2019-Mar-18 14:01 339 9.4
2019-Mar-18 13:46 356 0 gusting 2 8.9
2019-Mar-18 13:31 333 8.3
2019-Mar-18 13:16 329 8.3
2019-Mar-18 13:01 335 7.8
2019-Mar-18 12:46 294 7.8
2019-Mar-18 12:30 294 7.8
2019-Mar-18 12:16 294 7.2
2019-Mar-18 12:01 294 7.8
2019-Mar-18 11:46 295 8.3
2019-Mar-18 11:30 295 8.3
2019-Mar-18 11:16 295 9.4
2019-Mar-18 11:01 293 0 gusting 1 10.0
2019-Mar-18 10:46 288 10.0
2019-Mar-18 10:31 294 0 gusting 2 10.0
2019-Mar-18 10:15 290 0 gusting 2 10.0
2019-Mar-18 10:01 297 0 gusting 3 10.6
2019-Mar-18 09:45 300 0 gusting 2 10.0
2019-Mar-18 09:31 292 10.0
2019-Mar-18 09:15 299 10.0
2019-Mar-18 09:00 244 9.4
2019-Mar-18 08:45 297 8.9
2019-Mar-18 08:30 297 8.9
2019-Mar-18 08:15 297 8.9
2019-Mar-18 08:00 297 8.9
2019-Mar-18 07:45 297 8.9
2019-Mar-18 07:30 297 9.4
2019-Mar-18 07:15 297 9.4
2019-Mar-18 07:00 297 10.0
2019-Mar-18 06:45 297 10.6
2019-Mar-18 06:18 128 10.0
2019-Mar-18 06:02 128 10.0
2019-Mar-18 05:46 128 10.0
2019-Mar-18 05:32 199 10.0
2019-Mar-18 05:16 199 10.0
2019-Mar-18 05:02 199 10.6
2019-Mar-18 04:47 207 10.6
2019-Mar-18 04:31 207 10.0
2019-Mar-18 04:16 207 10.6
2019-Mar-18 04:01 207 11.1
2019-Mar-18 03:46 207 11.7
2019-Mar-18 03:31 207 11.7
2019-Mar-18 03:16 207 11.1
2019-Mar-18 03:02 207 11.1
2019-Mar-18 02:46 207 11.7
2019-Mar-18 02:32 207 11.7
2019-Mar-18 02:16 207 12.2
2019-Mar-18 02:01 210 0 gusting 1 12.8
2019-Mar-18 01:46 210 0 gusting 2 12.8
2019-Mar-18 01:31 203 0 gusting 2 12.8
2019-Mar-18 01:16 207 0 gusting 2 13.3
2019-Mar-18 01:01 187 0 gusting 2 13.9
2019-Mar-18 00:45 193 0 gusting 3 14.4
2019-Mar-18 00:30 150 0 gusting 4 15.0
2019-Mar-18 00:16 134 1 gusting 4 15.6
2019-Mar-18 00:01 134 1 gusting 6 16.1
2019-Mar-17 23:46 130 1 gusting 6 17.2
2019-Mar-17 23:31 073 2 gusting 6 17.8
2019-Mar-17 23:16 131 17.8
2019-Mar-17 23:01 056 1 gusting 6 17.8
2019-Mar-17 22:46 094 2 gusting 7 17.8
2019-Mar-17 22:31 053 0 gusting 5 17.8
2019-Mar-17 22:16 074 2 gusting 6 17.8
2019-Mar-17 22:00 127 1 gusting 7 17.8
2019-Mar-17 21:45 016 0 gusting 5 17.8
2019-Mar-17 21:30 055 3 gusting 8 17.8
2019-Mar-17 21:16 150 18.3
2019-Mar-17 21:01 072 2 gusting 11 17.8
2019-Mar-17 20:46 116 2 gusting 7 17.2
2019-Mar-17 20:30 127 2 gusting 6 17.2
2019-Mar-17 20:15 021 0 gusting 6 17.2
2019-Mar-17 20:00 041 2 gusting 7 17.2
2019-Mar-17 19:46 345 3 gusting 6 17.2
2019-Mar-17 19:30 251 3 gusting 6 17.2
2019-Mar-17 19:15 046 2 gusting 6 16.1
2019-Mar-17 19:00 028 4 gusting 6 16.1
2019-Mar-17 18:45 050 4 gusting 10 16.1
2019-Mar-17 18:30 307 1 gusting 6 15.6
2019-Mar-17 18:15 101 2 gusting 5 15.6
2019-Mar-17 18:00 140 3 gusting 6 16.1
2019-Mar-17 17:48 172 0 gusting 9 15.6
2019-Mar-17 17:31 098 2 gusting 7 15.0
2019-Mar-17 17:16 118 2 gusting 6 14.4
2019-Mar-17 17:03 118 2 gusting 6 15.0
2019-Mar-17 16:46 106 1 gusting 6 14.4
2019-Mar-17 16:31 124 1 gusting 10 13.3
2019-Mar-17 16:16 134 1 gusting 6 13.9
2019-Mar-17 16:01 175 1 gusting 7 13.3
2019-Mar-17 15:46 072 1 gusting 6 12.8
2019-Mar-17 15:31 051 3 gusting 6 12.2
2019-Mar-17 15:16 058 2 gusting 6 12.2
2019-Mar-17 15:01 032 0 gusting 6 11.1
2019-Mar-17 14:46 343 2 gusting 6 10.0
2019-Mar-17 14:31 026 1 gusting 5 8.9
2019-Mar-17 14:15 283 8.3
2019-Mar-17 14:00 345 0 gusting 3 7.8
2019-Mar-17 13:45 357 0 gusting 3 7.8
2019-Mar-17 13:30 340 1 gusting 3 7.2
2019-Mar-17 13:15 338 0 gusting 2 7.2
2019-Mar-17 13:00 330 6.7
2019-Mar-17 12:45 340 1 gusting 3 7.2
2019-Mar-17 12:30 339 0 gusting 2 7.2
2019-Mar-17 12:15 341 0 gusting 1 7.2
2019-Mar-17 12:00 335 0 gusting 2 7.2
2019-Mar-17 11:45 335 0 gusting 2 7.2
2019-Mar-17 11:30 333 0 gusting 1 7.8
2019-Mar-17 11:15 340 0 gusting 1 7.2
2019-Mar-17 11:00 335 0 gusting 2 7.8
2019-Mar-17 10:45 336 7.8
2019-Mar-17 10:33 336 7.2
2019-Mar-17 10:16 345 0 gusting 1 7.8
2019-Mar-17 10:03 342 0 gusting 2 8.3
2019-Mar-17 09:46 330 8.3
2019-Mar-17 09:32 335 0 gusting 2 8.9
2019-Mar-17 09:16 332 8.9
2019-Mar-17 09:01 342 0 gusting 2 8.9
2019-Mar-17 08:46 315 9.4
2019-Mar-17 08:31 315 9.4
2019-Mar-17 08:16 296 9.4
2019-Mar-17 08:01 340 9.4
2019-Mar-17 07:46 340 0 gusting 1 9.4
2019-Mar-17 07:31 340 0 gusting 1 9.4
2019-Mar-17 07:17 347 0 gusting 2 9.4
2019-Mar-17 07:01 345 0 gusting 2 9.4
2019-Mar-17 06:46 352 0 gusting 1 9.4
2019-Mar-17 06:30 348 0 gusting 1 10.0
2019-Mar-17 06:15 358 0 gusting 1 10.0
2019-Mar-17 06:01 347 0 gusting 1 10.0
2019-Mar-17 05:45 358 0 gusting 1 10.0
2019-Mar-17 05:30 356 0 gusting 1 10.6
2019-Mar-17 05:16 349 10.6
2019-Mar-17 05:00 013 10.6
2019-Mar-17 04:45 006 0 gusting 1 10.6
2019-Mar-17 04:30 006 11.1
2019-Mar-17 04:15 130 11.1
2019-Mar-17 04:01 130 10.6
2019-Mar-17 03:45 131 11.1
2019-Mar-17 03:31 130 11.1
2019-Mar-17 03:15 131 11.1
2019-Mar-17 03:00 124 11.1
2019-Mar-17 02:45 124 11.1
2019-Mar-17 02:30 127 11.1
2019-Mar-17 02:15 127 11.7
2019-Mar-17 02:01 127 11.7
2019-Mar-17 01:45 127 11.7
2019-Mar-17 01:30 127 11.7
2019-Mar-17 01:15 127 11.7
2019-Mar-17 01:00 127 11.7